Weather in Chiangmaj

Thailand     18˚47′24″N   98˚59′44″E
temp.,
°C
wind,
m/s
gust,
m/s
humid.,
%
clouds,
%
prec.,
mm/h
press.,
hPa
HPBL,
m
2 december, wed
wed201:00+20˚nnw127918 0.0 101693
04:00+19˚nnw118333 0.0 1016100
07:00+19˚nnw118532 0.0 101798
10:00+26˚ne115927 0.0 1017528
13:00+30˚ssw124616 0.0 10141193
16:00+29˚s214918 0.0 10111149
19:00+24˚sw127410 0.1 1014125
22:00+22˚wnw01799 0.0 101667
3 december, thu
thu301:00+21˚nnw11839 0.0 101580
04:00+20˚nnw11858 0.0 101497
07:00+19˚nnw11874 0.0 101685
10:00+26˚se11610 0.0 1017635
13:00+29˚s22518 0.0 10141326
16:00+26˚sse236870 0.9 1011795
19:00+22˚s138136 2.4 1014173
22:00+21˚s01861 0.1 101681
4 december, fri
fri401:00+20˚se008840 0.2 101586
04:00+19˚nnw009195 0.6 101578
07:00+20˚nne118991 0.8 1016117
10:00+22˚e138095 0.6 1017335
13:00+27˚sse235791 1.0 10131158
16:00+26˚s235662 0.2 10111332
19:00+21˚se127252 0.2 1014164
22:00+20˚sse01770 0.0 101661
5 december, sat
sat501:00+19˚nnw018115 0.0 101669
04:00+18˚nne118436 0.0 101684
07:00+17˚ne118632 0.0 101791
10:00+24˚ese125830 0.0 1018741
13:00+26˚ssw225130 0.0 10141308
16:00+25˚ssw225856 0.0 1013993
19:00+21˚ssw137239 0.0 1015178
22:00+19˚w01810 0.0 101773
6 december, sun
sun601:00+18˚nnw01860 0.0 101666
04:00+17˚n11890 0.0 101680
07:00+16˚n11901 0.0 101793
10:00+24˚ese01623 0.0 1018631
13:00+27˚s114751 0.0 10141052
16:00+26˚s225259 0.0 1012830
19:00+21˚sw127255 0.0 1015162
22:00+19˚wnw01780 0.0 101668